Hourly Data Report for April 20, 2018

TORONTO CITY
ONTARIO
Current Station Operator: ECCC - MSC

43°40'00.000" N
79°24'00.000" W
112.50 m
6158355
71508
XTO

Download Data

Hourly Data (April 2018)
Hourly Data Report for April 20, 2018
TIME
LST
Temp Definition
°C
Dew Point Definition
°C
Rel Hum Definition
%
Precip. Amount Definition
mm

Wind Dir Definition
10's deg

Wind Spd Definition
km/h
Visibility Definition
km
Stn Press Definition
kPa
Hmdx Definition


Wind Chill Definition


Weather Definition


00:00 1.3 -6.7 55 0.0 LegendMM LegendMM   100.94     LegendNANA
01:00 0.6 -7.4 55 0.0 LegendMM LegendMM   100.97     LegendNANA
02:00 0.2 -7.1 58 0.0 LegendMM LegendMM   101.01     LegendNANA
03:00 -0.4 -6.7 62 0.0 LegendMM LegendMM   101.06     LegendNANA
04:00 -0.5 -6.7 63 0.0 LegendMM LegendMM   101.13     LegendNANA
05:00 -0.5 -6.3 65 0.0 LegendMM LegendMM   101.18     LegendNANA
06:00 -0.5 -6.0 67 0.0 LegendMM LegendMM   101.24     LegendNANA
07:00 0.6 -6.1 61 0.0 LegendMM LegendMM   101.32     LegendNANA
08:00 1.7 -7.2 52 0.0 LegendMM LegendMM   101.39     LegendNANA
09:00 2.6 -7.9 46 0.0 LegendMM LegendMM   101.47     LegendNANA
10:00 3.6 -7.8 43 0.0 LegendMM LegendMM   101.55     LegendNANA
11:00 4.3 -6.4 46 0.0 LegendMM LegendMM   101.56     LegendNANA
12:00 5.9 -5.2 45 0.0 LegendMM LegendMM   101.54     LegendNANA
13:00 6.9 -5.0 42 0.0 LegendMM LegendMM   101.54     LegendNANA
14:00 6.9 -5.8 40 0.0 LegendMM LegendMM   101.55     LegendNANA
15:00 7.6 -6.5 36 0.0 LegendMM LegendMM   101.56     LegendNANA
16:00 7.5 -6.7 36 0.0 LegendMM LegendMM   101.56     LegendNANA
17:00 7.4 -6.0 38 0.0 LegendMM LegendMM   101.56     LegendNANA
18:00 6.5 -5.8 41 0.0 LegendMM LegendMM   101.59     LegendNANA
19:00 5.4 -6.2 43 0.0 LegendMM LegendMM   101.63     LegendNANA
20:00 4.7 -5.7 47 0.0 LegendMM LegendMM   101.67     LegendNANA
21:00 4.1 -6.6 46 0.0 LegendMM LegendMM   101.66     LegendNANA
22:00 3.7 -6.5 48 0.0 LegendMM LegendMM   101.63     LegendNANA
23:00 2.7 -5.8 53 0.0 LegendMM LegendMM   101.65     LegendNANA

Notes on Data Quality.

Legend

  • E = Estimated
  • M = Missing
  • NA = Not Available*
  • [empty] = Indicates an unobserved value
Date modified: